Regional Weather Roundup
Issued by NWS

Home | Current Version | Previous Version | Graphics & Text | Print | Product List | Glossary On
Versions: 1 2 3 4 5 6 7 8 9 10 11 12 13 14 15 16 17 18 19 20 21 22 23 24 25 26 27 28 29 30 31 32 33 34 35 36 37 38 39 40 41 42 43 44 45 46 47 48 49 50
000
ASUS43 KLMK 011002
RWRKY
KENTUCKY REGIONAL WEATHER ROUNDUP
NATIONAL WEATHER SERVICE LOUISVILLE KY
600 AM EDT WED APR 01 2015

NOTE "FAIR" INDICATES FEW OR NO CLOUDS BELOW 12,000 FEET
WITH NO SIGNIFICANT WEATHER AND/OR OBSTRUCTIONS TO VISIBILITY.

KYZ001>023-026-027-061>063-070>075-011100-
WESTERN AND SOUTH CENTRAL KENTUCKY

CITY           SKY/WX    TMP DP  RH WIND       PRES   REMARKS
PADUCAH        CLEAR     44  37  76 CALM      30.03R
HENDERSON      CLEAR     41  36  81 E5        30.03S
OWENSBORO      CLEAR     43  37  79 CALM      30.05R
HOPKINSVILLE   CLEAR     48  36  61 E3        30.03S
BOWLING GREEN  CLEAR     42  35  76 CALM      30.06R
GLASGOW        NOT AVBL
$$

KYZ024-025-028>034-038-045-046-053-011100-
NORTH CENTRAL KENTUCKY

CITY           SKY/WX    TMP DP  RH WIND       PRES   REMARKS
LOUISVILLE/SDF CLEAR     44  36  73 E6        30.07R
LOUISVILLE/LOU CLEAR     44  35  70 SE3       30.07R
FORT KNOX      CLEAR     42  35  73 E6        30.05R
$$

KYZ035>037-039>044-047>052-055>060-089>105-011100-
NORTHEAST KENTUCKY

CITY           SKY/WX    TMP DP  RH WIND       PRES   REMARKS
LEXINGTON      CLEAR     38  33  82 E7        30.06R WCI  33
COVINGTON      CLEAR     35  31  85 S6        30.06R WCI  30
FRANKFORT      CLEAR     36  32  85 CALM      30.05S
$$

KYZ054-064>069-076>088-106>120-011100-
SOUTHEAST KENTUCKY

CITY           SKY/WX    TMP DP  RH WIND       PRES   REMARKS
JACKSON        CLEAR     39  32  76 CALM      30.05R
LONDON         CLEAR     44  33  65 CALM      30.05R
SOMERSET       NOT AVBL
MIDDLESBORO    NOT AVBL
MONTICELLO     FAIR      34  32  92 CALM      30.08R
$$




USA.gov is the U.S. government's official web portal to all federal, state and local government web resources and services.